Location: USNO
(38.9242°N, 77.0663°W)
Time: 02:46:39
(UTC-04:00)

Daily predictions for brighter satellites

Satellite Brightness Start Highest point End
(mag) Time Altitude Azimuth Time Altitude Azimuth Time Altitude Azimuth
Cosmos 2360 Rocket 4.2 00:17:04 22° NNE 00:17:04 22° NNE 00:19:01 10° NNE
ATLAS CENTAUR R/B 4.5 01:07:38 63° W 01:09:18 70° NW 01:35:43 10° NE
Cosmos 2278 Rocket 4.3 01:22:02 10° NNW 01:23:57 22° N 01:23:57 22° N
ATLAS 3B R/B 3.6 01:54:42 50° NNE 01:54:42 50° NNE 01:59:59 10° NNE
COSMOS 2455 4.4 02:15:10 30° N 02:15:10 30° N 02:18:29 10° NNE
Cosmos 2219 Rocket 4.3 02:21:35 20° NNW 02:21:35 20° NNW 02:23:58 10° N
SL-16 R/B 3.7 02:32:46 32° NNE 02:32:46 32° NNE 02:35:46 10° NNE
Cosmos 2333 Rocket 4.1 02:33:47 23° NNW 02:33:47 23° NNW 02:36:38 10° N
Cosmos 2237 Rocket 4.1 02:37:53 24° NNW 02:37:53 24° NNW 02:40:42 10° N
Resurs 1-4 Rocket 4.4 02:39:43 10° NE 02:42:33 16° E 02:42:33 16° E
USA 238 DEB 4.1 02:44:48 59° N 02:44:48 59° N 02:50:30 10° NNE
USA 238 4.1 02:44:55 59° N 02:44:55 59° N 02:50:36 10° NNE
USA 234 4.1 02:40:36 10° NE 02:45:16 41° E 02:45:16 41° E
CZ-4C R/B 3.2 03:01:21 42° NNE 03:01:21 42° NNE 03:05:23 10° NNE
NOSS 3-2 (A) 4.1 03:01:04 51° ENE 03:01:04 51° ENE 03:06:10 10° NE
CZ-3A R/B 3.8 03:04:31 58° SSE 03:06:29 68° ESE 03:52:37 10° NE
ATLAS 5 CENTAUR R/B 4.2 03:09:56 15° E 03:09:56 15° E 03:12:05 10° ENE
Cosmos 1603 4.4 03:14:06 51° NNE 03:14:06 51° NNE 03:18:19 10° NNE
NOSS 3-2 (C) 3.8 03:16:42 60° E 03:16:42 60° E 03:22:25 10° NE
CENTAUR R/B 4.5 03:18:23 15° ESE 03:20:00 16° ESE 03:23:44 10° ENE
S3M 4.2 03:23:09 67° N 03:23:09 67° N 03:28:33 10° N
SL-16 R/B 3.2 03:20:43 38° ESE 03:22:36 50° ENE 03:28:32 10° N
Meteor 2-3 Rocket 4.4 03:22:21 10° N 03:27:58 51° ENE 03:28:50 47° ESE
Cosmos 1553 Rocket 4.3 03:43:22 53° NW 03:43:22 53° NW 03:48:34 10° N
Cosmos 1943 3.3 03:43:43 71° E 03:43:43 71° E 03:49:13 10° NNE
ATLAS 3B R/B 4.5 03:41:57 19° WNW 03:44:19 22° NW 03:49:49 10° NNE
ATLAS CENTAUR R/B 3.0 03:41:04 10° NNW 03:43:55 32° N 03:43:55 32° N
CZ-2D R/B 2.3 03:40:09 10° NNE 03:45:23 61° E 03:45:24 61° ESE
Cosmos 1386 Rocket 4.3 03:39:57 10° N 03:46:18 88° E 03:46:47 78° SSE
Cosmos 1726 4.4 03:50:12 20° N 03:50:12 20° N 03:51:26 10° N
Cosmos 1745 Rocket 4.1 03:41:38 10° NNW 03:47:25 64° WNW 03:47:25 64° WNW
Cosmos 494 Rocket 4.1 03:49:58 71° E 03:49:58 71° E 03:54:59 10° NNE
Cosmos 1709 Rocket 4.5 03:43:32 10° N 03:49:49 58° E 03:53:17 27° SSE
UNK 4.2 03:52:33 57° NNE 03:52:33 57° NNE 03:56:19 10° N
Cosmos 2369 Rocket 2.3 03:50:40 10° NNW 03:56:17 70° ENE 03:59:35 25° SE
IRS-1D 3.5 03:58:49 10° N 04:03:55 73° WNW 04:03:55 73° WNW
Cosmos 1455 3.2 04:05:19 46° ENE 04:05:19 46° ENE 04:08:44 10° NNE
ADEOS 4.3 04:03:53 10° N 04:08:05 38° NW 04:08:05 38° NW
Cosmos 389 Rocket 4.3 04:11:38 26° ESE 04:12:00 26° E 04:14:59 10° NE
BREEZE-M DEB (TANK) 4.3 04:12:19 22° NW 04:14:38 53° NNE 04:22:16 10° ESE
Cosmos 1733 Rocket 3.8 04:10:37 10° N 04:14:54 51° E 04:16:56 28° SE
SL-16 R/B 4.4 04:14:39 12° NW 04:15:09 12° NW 04:17:16 10° NNW
ARIANE 5 R/B 2.8 04:10:38 10° N 04:15:40 52° WNW 04:15:40 52° WNW
Cosmos 1331 Rocket 4.0 04:12:47 10° NNW 04:17:46 63° W 04:17:46 63° W
Resurs 1-4 Rocket 2.1 04:17:56 10° N 04:23:06 58° WNW 04:23:37 55° W
Cosmos 1943 Rocket 3.1 04:17:38 10° NNW 04:23:09 49° ENE 04:28:34 10° SE
Cosmos 2263 4.2 04:22:08 10° NNW 04:27:57 89° WSW 04:33:44 10° SSE
Cosmos 1184 Rocket 3.7 04:25:34 10° N 04:28:56 49° E 04:29:40 40° ESE
USA 234 3.7 04:23:37 10° NE 04:29:52 49° NW 04:32:36 32° W
SeaSat 1 2.6 04:25:47 10° SE 04:30:41 73° ENE 04:35:37 10° NNW
ERS-2 4.3 04:34:19 10° NNW 04:35:33 15° NW 04:35:33 15° NW
ADEOS II 4.2 04:35:01 10° NE 04:39:15 24° E 04:43:27 10° SSE
Okean O Rocket 1.7 04:35:42 10° NNE 04:40:10 74° ESE 04:42:13 32° S
Cosmos 2315 Rocket 4.1 04:39:22 38° SW 04:41:33 55° W 04:47:43 10° N
Cosmos 1408 4.3 04:40:01 10° NNE 04:43:28 34° ENE 04:46:54 10° SE
Cosmos 1825 3.7 04:40:56 10° N 04:44:29 36° ENE 04:47:59 10° SSE
Cosmos 1862 4.5 04:42:01 10° N 04:45:50 43° E 04:49:37 10° SSE
CZ-4C R/B 4.3 04:46:31 11° WNW 04:49:19 15° NNW 04:52:39 10° N
EO 1 Del DPAF 4.4 04:50:48 28° WNW 04:50:48 28° WNW 04:53:11 10° NNW
CZ-2D R/B 3.8 04:47:24 10° N 04:51:40 49° WNW 04:52:35 41° WSW
UNKNOWN OBJECT B 3.7 04:48:46 10° N 04:51:42 30° WNW 04:51:42 30° WNW
ATLAS 5 CENTAUR R/B 2.0 04:51:30 38° WSW 04:53:08 58° NW 04:58:17 10° NNE
CZ-4B R/B 2.9 04:50:45 10° NNE 04:54:23 69° E 04:56:32 24° S
BREEZE-M DEB (TANK) 3.5 04:54:09 19° NNW 04:55:17 31° NNE 04:57:37 10° E
Sich 1 Rocket 3.6 04:50:53 10° N 04:55:18 80° E 04:59:42 10° S
Cosmos 1869 3.5 04:55:35 44° WSW 04:56:16 49° W 05:00:09 10° N
IRS-1C Rocket 4.0 04:52:35 10° N 04:57:51 73° WNW 05:01:15 22° SSW
Cosmos 1703 Rocket 4.2 04:54:31 10° S 04:58:54 57° E 05:03:19 10° NNE
Cosmos 1933 3.5 04:56:45 19° S 04:59:40 77° E 05:03:47 10° N
SL-27 R/B 2.4 05:00:14 35° SSW 05:01:40 87° WNW 05:05:20 10° NNE
SL-16 R/B 3.5 05:05:49 24° WSW 05:06:27 24° W 05:11:20 10° NW
Aureole 3 Rocket 4.4 05:00:41 10° S 05:08:13 68° E 05:13:34 10° NNE
CZ-2C R/B 3.6 05:04:46 10° S 05:09:09 58° W 05:13:32 10° NNW
CENTAUR R/B 2.5 05:05:35 23° SW 05:09:36 77° NW 05:16:27 10° NNE
ADEOS Rocket 4.0 05:02:07 10° NNE 05:09:49 64° E 05:17:27 10° S
Atlas Centaur 2 3.8 05:10:10 11° S 05:12:42 16° SSE 05:15:52 10° ESE
ARGOS Delta rocket 4.5 05:15:03 10° N 05:18:57 32° WNW 05:20:54 22° WSW
PSLV R/B 3.7 05:18:39 10° NNE 05:23:02 77° ESE 05:27:25 10° S
COSMOS 2406 3.2 05:19:14 14° SSW 05:24:17 74° WNW 05:30:04 10° NNE
CZ-2D R/B 3.7 05:21:42 10° NNW 05:24:54 17° WNW 05:26:44 14° W
MOZ.5/SAFIR/RUBIN 5/SL-8 4.3 05:21:35 10° SSW 05:25:50 36° W 05:30:06 10° NNW
Nadezhda 1 Rocket 4.0 05:25:52 10° SSW 05:32:02 65° W 05:38:21 10° N
Okean 2 Rocket 3.2 05:30:02 10° N 05:34:33 82° E 05:39:04 10° S
PSLV R/B 3.6 05:35:27 12° WNW 05:38:34 64° N 05:41:56 10° E
Cosmos 2369 Rocket 3.7 05:36:43 10° WNW 05:39:37 14° W 05:41:02 13° WSW
Cosmos 1455 4.4 05:40:22 10° W 05:40:59 11° WNW 05:41:58 10° NW
CZ-4B R/B 3.7 05:36:41 10° N 05:41:33 38° WNW 05:46:23 10° SW
Okean 1-7 2.9 05:37:21 10° SSW 05:41:37 74° W 05:45:58 10° N
Cosmos 407 Rocket 3.6 05:38:42 10° SSW 05:43:54 84° ESE 05:49:11 10° NNE
Meteor PRIRODA 3.6 05:42:37 10° N 05:46:24 81° W 05:50:09 10° SSW
Cosmos 389 Rocket 4.4 05:45:45 12° W 05:46:58 14° WNW 05:48:56 10° NW
Cosmos 2154 Rocket 4.1 05:52:01 10° NNW 05:58:16 65° W 06:04:31 10° S
CZ-4B R/B 4.3 05:54:23 10° NNE 05:58:55 82° ESE 06:03:22 10° S
Cosmos 1782 Rocket 4.0 05:55:36 10° NNW 05:59:38 39° W 06:03:40 10° SSW
Cosmos 2082 Rocket 4.5 05:56:24 10° SSE 06:01:04 27° ESE 06:05:46 10° NE
BREEZE-M DEB (TANK) 3.7 06:00:42 10° WSW 06:03:18 54° NNW 06:09:04 10° NE
AVUM R/B 3.2 06:01:02 10° SSW 06:04:11 81° WNW 06:07:32 10° NNE
Cosmos 1943 Rocket 3.3 06:02:17 10° NW 06:06:27 22° W 06:10:37 10° SSW
